Weather History for Yellowstone, WY

Change the Weather History Date:

Friday, November 1, 2013

  Actual Average Record
Temperature  
Mean Temperature 25 °F 29 °F  
Max Temperature 35 °F 41 °F 47 °F (2012)
Min Temperature 14 °F 18 °F -8 °F (2002)
Degree Days  
Heating Degree Days 40 36  
Month to date heating degree days 40 36  
Since 1 July heating degree days 2006 2084  
Cooling Degree Days 0 0  
Month to date cooling degree days 0 0  
Year to date cooling degree days 0 0  
Moisture  
Dew Point 21 °F    
Average Humidity 77    
Maximum Humidity 92    
Minimum Humidity 61    
Precipitation  
Precipitation 0.00 in 0.08 in 0.08 in (2008)
Month to date precipitation 0.00 0.08  
Year to date precipitation 17.86 16.80  
Sea Level Pressure  
Sea Level Pressure 30.29 in    
Wind  
Wind Speed 2 mph (WNW)    
Max Wind Speed 14 mph    
Max Gust Speed 21 mph    
T = Trace of Precipitation, MM = Missing Value Source: NWS Daily Summary

Daily Weather History Graph

Daily Weather History Graph

Search for Another Location

Airport:

Trip Planner

Search our weather history database for the weather conditions in past years. The results will help you decide how hot, cold, wet, or windy it might be!

Date:

Astronomy

Nov. 01, 2013 Rise Set
Actual Time 7:59 AM MDT 6:10 PM MDT
Civil Twilight 7:29 AM MDT 6:40 PM MDT
Nautical Twilight 6:54 AM MDT 7:14 PM MDT
Astronomical Twilight 6:20 AM MDT 7:48 PM MDT
Moon 5:51 AM MDT (11/1) 5:08 PM MDT (11/1)
Length of Visible Light 11h 11m
Length of Day
10h 10m
Waning Crescent, 4% of the Moon is Illuminated
Nov 1
Waning Crescent
Nov 3
New
Nov 9
First Quarter
Nov 17
Full
Nov 25
Last Quarter

Hourly Weather History & Observations

Time (MDT) Temp. Windchill Dew Point Humidity Pressure Visibility Wind Dir Wind Speed Gust Speed Precip Events Conditions
12:56 AM 23.0 °F - 19.9 °F 88% 30.16 in - Calm Calm - N/A   Unknown
1:56 AM 24.1 °F 18.2 °F 19.9 °F 84% 30.18 in - WNW 4.6 mph - N/A   Unknown
2:56 AM 23.0 °F 18.4 °F 19.0 °F 85% 30.18 in - WNW 3.5 mph - N/A   Unknown
3:56 AM 19.0 °F - 16.0 °F 88% 30.22 in - Calm Calm - N/A   Unknown
4:56 AM 17.1 °F - 14.0 °F 88% 30.26 in - Calm Calm - N/A   Unknown
5:56 AM 15.1 °F - 12.0 °F 88% 30.28 in - Calm Calm - N/A   Unknown
6:56 AM 17.1 °F - 15.1 °F 92% 30.29 in - Calm Calm - N/A   Unknown
7:56 AM 19.9 °F - 18.0 °F 92% 30.29 in - Calm Calm - N/A   Unknown
8:56 AM 21.9 °F - 19.9 °F 92% 30.30 in - Calm Calm - N/A   Unknown
9:56 AM 28.0 °F 24.2 °F 21.9 °F 78% 30.29 in - Variable 3.5 mph - N/A   Unknown
10:56 AM 32.0 °F 23.6 °F 21.9 °F 66% 30.28 in - WNW 10.4 mph - N/A   Unknown
11:56 AM 33.1 °F 27.7 °F 21.0 °F 61% 30.29 in - Variable 5.8 mph 18.4 mph N/A   Unknown
12:56 PM 34.0 °F - 21.0 °F 59% 30.29 in - Calm Calm - N/A   Unknown
1:56 PM 34.0 °F 29.8 °F 21.9 °F 61% 30.30 in - Variable 4.6 mph - N/A   Unknown
2:56 PM 32.0 °F 28.7 °F 24.1 °F 73% 30.31 in - Variable 3.5 mph - N/A   Unknown
3:56 PM 32.0 °F 26.4 °F 23.0 °F 69% 30.33 in - Variable 5.8 mph - N/A   Unknown
4:56 PM 30.9 °F - 24.1 °F 76% 30.36 in - Calm Calm - N/A   Unknown
5:56 PM 30.0 °F 26.5 °F 21.9 °F 72% 30.38 in - Variable 3.5 mph - N/A   Unknown
6:56 PM 28.9 °F - 23.0 °F 78% 30.38 in - Calm Calm - N/A   Unknown
7:56 PM 28.9 °F - 24.1 °F 82% 30.37 in - Calm Calm - N/A   Unknown
8:56 PM 30.0 °F - 24.1 °F 79% 30.34 in - Calm Calm - N/A   Unknown
9:56 PM 30.0 °F - 25.0 °F 82% 30.31 in - Calm Calm - N/A   Unknown
10:56 PM 28.9 °F - 26.1 °F 89% 30.29 in - Calm Calm - N/A   Unknown
11:56 PM 30.9 °F - 26.1 °F 82% 30.28 in - Calm Calm - N/A   Unknown